Litchfield, IL

2:23 PM CDT on July 22, 2017 (GMT -0500)
Litchfield

Weather History for K3LF - November, 2012

Change the Weather History Date:

Saturday, November 3, 2012

  Actual Average (KALN) Record (KALN)
Temperature  
Mean Temperature 42 °F -  
Max Temperature 48 °F 57 °F 80 °F (2003)
Min Temperature 35 °F 41 °F 23 °F (2006)
Degree Days  
Heating Degree Days 24    
Moisture  
Dew Point 36 °F    
Average Humidity 75    
Maximum Humidity 94    
Minimum Humidity 58    
Precipitation  
Precipitation 0.00 in - - ()
Sea Level Pressure  
Sea Level Pressure 30.10 in    
Wind  
Wind Speed 10 mph (ENE)    
Max Wind Speed 16 mph    
Max Gust Speed 24 mph    
Visibility 10 miles    
Events Thunderstorm    
Averages and records for this station are not official NWS values.
T = Trace of Precipitation, MM = Missing Value Source: NWS Daily Summary

Daily Weather History Graph

Daily Weather History Graph

Search for Another Location

Airport or City:

Trip Planner

Search our weather history database for the weather conditions in past years. The results will help you decide how hot, cold, wet, or windy it might be!

Date:

Astronomy

Nov. 03, 2012 Rise Set
Actual Time 7:29 AM CDT 5:54 PM CDT
Civil Twilight 7:01 AM CDT 6:22 PM CDT
Nautical Twilight 6:29 AM CDT 6:54 PM CDT
Astronomical Twilight 5:58 AM CDT 7:25 PM CDT
Moon 9:36 PM CDT (11/3) 11:32 AM CDT (11/3)
Length of Visible Light 11h 21m
Length of Day
10h 25m
Waning Gibbous, 80% of the Moon is Illuminated
Nov 3
Waning Gibbous
Nov 6
Last Quarter
Nov 13
New
Nov 20
First Quarter
Nov 28
Full

Hourly Weather History & Observations

Time (CDT) Temp. Windchill Dew Point Humidity Pressure Visibility Wind Dir Wind Speed Gust Speed Precip Events Conditions
12:15 AM 42.8 °F 38.0 °F 32.0 °F 66% 30.08 in 10.0 mi East 8.1 mph - N/A   Clear
12:35 AM 43.2 °F 37.9 °F 32.0 °F 65% 30.06 in 10.0 mi East 9.2 mph - N/A   Clear
12:55 AM 43.3 °F 38.1 °F 31.8 °F 64% 30.06 in 10.0 mi East 9.2 mph - N/A   Clear
1:15 AM 43.7 °F 38.1 °F 31.3 °F 62% 30.06 in 10.0 mi East 10.4 mph - N/A   Scattered Clouds
1:35 AM 44.1 °F 38.1 °F 31.1 °F 60% 30.05 in 10.0 mi East 11.5 mph - N/A   Mostly Cloudy
1:55 AM 44.4 °F 38.2 °F 30.9 °F 59% 30.03 in 10.0 mi East 12.7 mph - N/A   Mostly Cloudy
2:15 AM 44.1 °F 37.7 °F 30.2 °F 58% 30.04 in 10.0 mi East 12.7 mph - N/A Thunderstorm Mostly Cloudy
2:35 AM 44.4 °F 39.0 °F 30.6 °F 58% 30.05 in 10.0 mi ENE 10.4 mph - N/A   Overcast
2:55 AM 44.1 °F 38.1 °F 30.9 °F 60% 30.05 in 10.0 mi East 11.5 mph - N/A   Overcast
3:15 AM 43.9 °F 39.3 °F 31.8 °F 63% 30.05 in 10.0 mi East 8.1 mph - N/A   Mostly Cloudy
3:35 AM 43.7 °F 37.3 °F 32.0 °F 63% 30.04 in 10.0 mi ENE 12.7 mph - N/A   Overcast
3:55 AM 43.7 °F 36.9 °F 32.4 °F 64% 30.03 in 10.0 mi East 13.8 mph 19.6 mph N/A   Overcast
4:15 AM 43.9 °F 37.9 °F 32.9 °F 65% 30.06 in 10.0 mi ENE 11.5 mph - N/A   Overcast
4:35 AM 43.9 °F 37.2 °F 33.3 °F 66% 30.05 in 10.0 mi East 13.8 mph - N/A   Overcast
4:55 AM 43.7 °F 38.1 °F 33.3 °F 67% 30.06 in 10.0 mi ESE 10.4 mph 19.6 mph N/A Thunderstorm Overcast
5:15 AM 43.7 °F 38.1 °F 33.8 °F 68% 30.06 in 10.0 mi East 10.4 mph - N/A   Overcast
5:35 AM 43.5 °F 37.5 °F 34.0 °F 69% 30.06 in 10.0 mi East 11.5 mph 16.1 mph N/A   Mostly Cloudy
5:55 AM 43.2 °F 37.0 °F 34.3 °F 71% 30.06 in 10.0 mi East 11.5 mph - N/A   Scattered Clouds
6:15 AM 43.2 °F 37.9 °F 34.7 °F 72% 30.06 in 10.0 mi ESE 9.2 mph - N/A   Mostly Cloudy
6:35 AM 43.0 °F 37.2 °F 34.7 °F 73% 30.06 in 10.0 mi East 10.4 mph - N/A   Mostly Cloudy
6:55 AM 43.2 °F 36.6 °F 34.9 °F 73% 30.06 in 10.0 mi East 12.7 mph 16.1 mph N/A   Overcast
7:15 AM 43.3 °F 36.8 °F 35.1 °F 73% 30.06 in 10.0 mi East 12.7 mph - N/A   Overcast
7:35 AM 43.7 °F 38.6 °F 35.1 °F 72% 30.07 in 10.0 mi East 9.2 mph - N/A   Overcast
7:55 AM 43.3 °F 38.1 °F 35.6 °F 74% 30.07 in 10.0 mi ENE 9.2 mph - N/A   Overcast
8:15 AM 43.2 °F 37.0 °F 36.5 °F 77% 30.08 in 10.0 mi ENE 11.5 mph - N/A   Overcast
8:35 AM 42.8 °F 36.2 °F 36.5 °F 78% 30.08 in 10.0 mi ENE 12.7 mph 17.3 mph N/A   Overcast
8:55 AM 42.8 °F 36.2 °F 36.5 °F 78% 30.08 in 10.0 mi East 12.7 mph - N/A   Overcast
9:15 AM 42.8 °F 35.4 °F 36.5 °F 78% 30.07 in 10.0 mi East 15.0 mph 18.4 mph N/A   Overcast
9:35 AM 42.8 °F 36.2 °F 36.5 °F 78% 30.08 in 10.0 mi ENE 12.7 mph - N/A   Overcast
9:55 AM 43.2 °F 36.6 °F 36.7 °F 78% 30.08 in 10.0 mi ENE 12.7 mph 17.3 mph N/A   Overcast
10:15 AM 43.3 °F 36.5 °F 36.5 °F 77% 30.07 in 10.0 mi ENE 13.8 mph 17.3 mph N/A   Overcast
10:35 AM 43.9 °F 37.5 °F 36.3 °F 75% 30.07 in 10.0 mi East 12.7 mph 18.4 mph N/A   Overcast
10:55 AM 44.6 °F 38.8 °F 36.5 °F 73% 30.07 in 10.0 mi East 11.5 mph - N/A   Overcast
11:15 AM 45.1 °F 39.9 °F 36.1 °F 71% 30.07 in 10.0 mi East 10.4 mph 19.6 mph N/A   Overcast
11:35 AM 45.5 °F 39.9 °F 36.0 °F 69% 30.08 in 10.0 mi East 11.5 mph - N/A   Overcast
11:55 AM 46.2 °F 41.7 °F 36.5 °F 69% 30.07 in 10.0 mi ENE 9.2 mph - N/A   Overcast
12:15 PM 46.6 °F - 36.5 °F 68% 30.07 in 10.0 mi ENE 11.5 mph - N/A   Overcast
12:35 PM 47.5 °F - 36.5 °F 66% 30.07 in 10.0 mi ENE 10.4 mph - N/A   Overcast
12:55 PM 48.2 °F - 36.5 °F 64% 30.07 in 10.0 mi NNE 11.5 mph 17.3 mph N/A   Overcast
1:15 PM 46.8 °F - 38.7 °F 73% 30.07 in 10.0 mi NE 11.5 mph - N/A   Overcast
1:35 PM 46.6 °F - 38.5 °F 73% 30.08 in 10.0 mi NE 13.8 mph - N/A   Overcast
1:55 PM 46.8 °F - 39.6 °F 76% 30.08 in 10.0 mi NE 16.1 mph 19.6 mph N/A   Overcast
2:15 PM 47.3 °F - 39.7 °F 75% 30.08 in 10.0 mi NE 15.0 mph 24.2 mph N/A   Overcast
2:35 PM 47.1 °F - 39.7 °F 76% 30.08 in 10.0 mi NNE 16.1 mph - N/A   Overcast
2:55 PM 46.9 °F - 39.6 °F 76% 30.09 in 10.0 mi NNE 11.5 mph - N/A   Overcast
3:15 PM 46.6 °F - 39.2 °F 75% 30.09 in 10.0 mi NNE 12.7 mph 19.6 mph N/A   Overcast
3:35 PM 47.1 °F - 39.2 °F 74% 30.10 in 10.0 mi NNE 12.7 mph - N/A   Overcast
3:55 PM 46.6 °F - 38.8 °F 74% 30.11 in 10.0 mi NE 13.8 mph 19.6 mph N/A   Overcast
4:15 PM 46.6 °F - 38.5 °F 73% 30.11 in 10.0 mi NE 10.4 mph - N/A   Overcast
4:35 PM 46.4 °F 40.7 °F 38.1 °F 73% 30.12 in 10.0 mi NE 12.7 mph - N/A   Overcast
4:55 PM 46.2 °F 41.2 °F 38.3 °F 74% 30.12 in 10.0 mi NE 10.4 mph - N/A   Overcast
5:15 PM 45.7 °F 40.6 °F 38.3 °F 75% 30.13 in 10.0 mi NE 10.4 mph - N/A   Overcast
5:35 PM 45.5 °F 39.9 °F 38.3 °F 76% 30.13 in 10.0 mi NNE 11.5 mph - N/A   Overcast
5:55 PM 44.8 °F 39.4 °F 38.3 °F 78% 30.14 in 10.0 mi NE 10.4 mph - N/A   Overcast
6:15 PM 43.9 °F 38.8 °F 37.9 °F 80% 30.15 in 10.0 mi NNE 9.2 mph - N/A   Mostly Cloudy
6:35 PM 42.8 °F 38.0 °F 37.4 °F 81% 30.16 in 10.0 mi NNE 8.1 mph - N/A   Scattered Clouds
6:55 PM 42.3 °F 36.8 °F 38.5 °F 86% 30.16 in 10.0 mi North 9.2 mph - N/A   Scattered Clouds
7:15 PM 41.9 °F 36.3 °F 38.5 °F 88% 30.16 in 10.0 mi North 9.2 mph - N/A   Scattered Clouds
7:35 PM 41.0 °F 35.2 °F 37.9 °F 89% 30.16 in 10.0 mi NNE 9.2 mph - N/A   Scattered Clouds
7:55 PM 39.9 °F 35.1 °F 37.4 °F 91% 30.16 in 10.0 mi NNE 6.9 mph - N/A   Scattered Clouds
8:15 PM 39.4 °F 35.2 °F 37.0 °F 91% 30.17 in 7.0 mi NNE 5.8 mph - N/A   Scattered Clouds
8:35 PM 39.7 °F 37.6 °F 37.2 °F 91% 30.18 in 7.0 mi North 3.5 mph - N/A   Mostly Cloudy
8:55 PM 39.2 °F 34.2 °F 37.0 °F 92% 30.18 in 7.0 mi NNE 6.9 mph - N/A   Mostly Cloudy
9:15 PM 38.3 °F 33.9 °F 36.1 °F 92% 30.18 in 10.0 mi NNE 5.8 mph - N/A   Scattered Clouds
9:35 PM 38.3 °F 32.5 °F 36.3 °F 93% 30.18 in 10.0 mi North 8.1 mph - N/A   Clear
9:55 PM 37.6 °F 32.3 °F 36.0 °F 94% 30.19 in 7.0 mi NNE 6.9 mph - N/A   Clear
10:15 PM 36.9 °F 31.4 °F 35.2 °F 94% 30.19 in 10.0 mi NNE 6.9 mph - N/A   Clear
10:35 PM 36.5 °F 31.0 °F 34.9 °F 94% 30.19 in 10.0 mi North 6.9 mph - N/A   Clear
10:55 PM 35.8 °F 30.9 °F 34.0 °F 93% 30.19 in 10.0 mi NNE 5.8 mph - N/A   Clear
11:15 PM 35.6 °F 31.7 °F 33.8 °F 93% 30.19 in 10.0 mi NNE 4.6 mph - N/A   Clear
11:35 PM 36.1 °F 30.6 °F 33.8 °F 91% 30.19 in 10.0 mi NE 6.9 mph - N/A   Clear
11:55 PM 37.6 °F 34.0 °F 32.9 °F 83% 30.20 in 10.0 mi NE 4.6 mph - N/A   Clear